GSAT-16

Last updated on Sat Apr 13 2024 01:02:38 GMT+0100 (British Summer Time)

1 40332U 14078A 24103.53177538 .00000076 00000+0 00000+0 0 9992 2 40332 0.0099 172.0409 0005627 261.8730 13.7991 1.00271945 34121
UTC large
Height (km)
Speed (km/s)
/
Latitude / Longitude
Inclination (degrees)
Orbital Period (minutes)
Azimuth
Elevation
Range (km)
Doppler Factor

Next 0 passes for location: London (51.5072 / 0.1276)

Sorry there are no passes over London.